Temp
-15 -15 -14 -15 -15 -15 -15 -15 -15 -15 -15 -15 -15 -15 -15 -15 -15 -15 -15 -15 -14 -14 -13 -13 -14 -14 -13 -13 -13 -13 -13 -13 -13 -13 -13 -13 -13 -13 -13 -13 -12 -12 -12 -12
-15 -15 -15 -15 -15 -15 -15 -15 -15 -15 -15 -15 -15 -15 -15 -15 -15 -15 -15 -15 -15 -14 -14 -14 -14 -14 -14 -13 -13 -13 -13 -13 -12 -13 -13 -13 -13 -13 -13 -13 -13 -13 -13 -13
-14 -15 -15 -15 -15 -15 -15 -15 -15 -15 -15 -15 -15 -15 -15 -15 -15 -15 -15 -15 -15 -15 -14 -15 -15 -14 -14 -14 -14 -14 -14 -14 -14 -14 -13 -13 -14 -14 -14 -14 -13 -14 -13 -14
-15 -15 -15 -15 -15 -15 -15 -15 -15 -15 -15 -15 -15 -15 -15 -15 -15 -15 -15 -15 -15 -15 -15 -15 -15 -15 -15 -15 -15 -14 -14 -14 -14 -14 -14 -13 -13 -13 -13 -13 -13 -13 -14 -14
-15 -15 -15 -15 -15 -15 -15 -15 -15 -15 -15 -15 -15 -15 -15 -15 -15 -15 -15 -15 -15 -15 -15 -14 -14 -14 -14 -14 -14 -14 -14 -14 -13 -13 -14 -13 -13 -13 -14 -14 -14 -13 -14 -13
-15 -15 -15 -15 -15 -15 -15 -15 -15 -15 -15 -15 -15 -15 -15 -15 -15 -15 -15 -15 -15 -15 -15 -15 -15 -15 -14 -14 -14 -14 -14 -14 -14 -13 -14 -13 -13 -14 -15 -14 -14 -14 -14 -14
-15 -15 -16 -16 -15 -15 -15 -15 -15 -15 -15 -15 -15 -15 -15 -15 -15 -15 -15 -15 -15 -15 -15 -15 -15 -15 -15 -15 -14 -14 -14 -14 -14 -13 -14 -13 -13 -14 -14 -14 -14 -14 -14 -14
-16 -16 -16 -16 -16 -16 -16 -16 -16 -16 -15 -15 -15 -15 -15 -15 -16 -16 -16 -16 -16 -16 -16 -15 -15 -14 -14 -14 -14 -15 -15 -15 -14 -14 -13 -13 -14 -14 -14 -14 -14 -14 -14 -15
-16 -16 -16 -16 -16 -16 -16 -16 -16 -15 -15 -16 -16 -16 -16 -16 -16 -16 -16 -16 -16 -16 -16 -16 -15 -15 -14 -14 -13 -14 -14 -14 -15 -15 -15 -14 -14 -14 -15 -16 -15 -15 -15 -16
-17 -17 -17 -17 -16 -16 -16 -16 -16 -16 -16 -16 -16 -16 -16 -16 -16 -16 -16 -16 -16 -16 -16 -16 -15 -15 -15 -14 -14 -14 -15 -15 -15 -16 -15 -14 -15 -15 -16 -16 -17 -16 -17 -17
-16 -17 -17 -17 -17 -17 -17 -17 -17 -17 -17 -16 -16 -16 -17 -16 -16 -16 -16 -16 -16 -16 -16 -16 -15 -15 -15 -15 -15 -15 -15 -16 -16 -16 -17 -16 -16 -17 -17 -18 -18 -18 -18 -18
-17 -17 -17 -17 -17 -17 -17 -17 -17 -16 -16 -16 -16 -16 -17 -17 -16 -16 -16 -16 -16 -16 -16 -16 -16 -16 -16 -16 -16 -16 -17 -17 -17 -17 -18 -17 -17 -18 -18 -19 -19 -19 -19 -19
-18 -18 -18 -17 -18 -18 -17 -17 -18 -17 -17 -16 -16 -17 -17 -17 -17 -17 -17 -17 -17 -17 -17 -17 -17 -17 -17 -17 -17 -17 -18 -18 -18 -19 -20 -20 -20 -20 -20 -20 -20 -20 -21 -21
-20 -20 -19 -19 -19 -18 -18 -18 -18 -18 -18 -17 -18 -18 -18 -18 -17 -17 -18 -18 -18 -18 -18 -18 -18 -18 -18 -18 -19 -18 -19 -20 -20 -20 -21 -21 -22 -22 -22 -22 -22 -22 -22 -22
-22 -21 -21 -21 -20 -20 -20 -20 -20 -19 -19 -18 -19 -19 -19 -19 -19 -19 -19 -19 -19 -19 -20 -20 -20 -20 -21 -20 -20 -20 -20 -21 -21 -21 -21 -21 -22 -22 -22 -22 -22 -22 -22 -22
-23 -23 -22 -22 -22 -21 -21 -21 -21 -21 -21 -20 -20 -20 -21 -21 -20 -20 -20 -21 -21 -21 -21 -21 -21 -21 -22 -21 -20 -20 -21 -21 -22 -22 -22 -22 -22 -22 -23 -23 -23 -24 -24 -24
-24 -24 -23 -23 -23 -23 -22 -22 -22 -22 -22 -22 -21 -21 -21 -22 -22 -22 -21 -21 -21 -21 -21 -21 -21 -22 -22 -22 -22 -22 -22 -22 -22 -23 -23 -23 -24 -24 -24 -24 -25 -25 -26 -26
-25 -26 -26 -26 -25 -24 -24 -24 -23 -23 -23 -23 -22 -22 -22 -22 -22 -22 -22 -22 -23 -23 -23 -23 -23 -23 -24 -24 -24 -24 -24 -24 -24 -25 -25 -25 -26 -26 -26 -26 -27 -27 -27 -28
-29 -28 -27 -26 -26 -26 -26 -26 -26 -25 -25 -25 -24 -24 -24 -23 -24 -24 -24 -24 -24 -24 -24 -25 -25 -25 -25 -26 -26 -26 -27 -27 -27 -26 -27 -27 -28 -28 -28 -28 -28 -29 -28 -29
-30 -30 -30 -30 -29 -28 -28 -27 -27 -27 -27 -26 -26 -26 -26 -26 -26 -26 -26 -26 -26 -26 -26 -27 -27 -27 -28 -28 -29 -28 -29 -29 -29 -29 -29 -29 -29 -29 -29 -29 -29 -30 -30 -30
-31 -31 -31 -31 -31 -30 -30 -30 -30 -30 -30 -29 -28 -28 -28 -28 -28 -28 -28 -29 -29 -28 -29 -29 -29 -30 -30 -30 -30 -31 -31 -31 -31 -31 -31 -30 -30 -30 -30 -30 -31 -31 -30 -31
-31 -31 -31 -31 -31 -31 -31 -31 -31 -31 -31 -30 -30 -30 -30 -30 -30 -30 -31 -31 -31 -31 -31 -31 -31 -31 -32 -32 -32 -31 -31 -31 -31 -31 -31 -31 -31 -31 -31 -31 -31 -31 -31 -32
-32 -32 -32 -32 -32 -32 -31 -31 -31 -31 -31 -31 -31 -31 -31 -31 -31 -32 -32 -32 -32 -32 -32 -32 -32 -32 -32 -32 -32 -32 -32 -31 -31 -31 -32 -32 -31 -32 -32 -32 -33 -33 -33 -33
-33 -33 -33 -33 -32 -32 -32 -32 -32 -32 -32 -32 -32 -32 -32 -32 -32 -32 -32 -33 -33 -32 -32 -32 -32 -32 -33 -33 -33 -33 -33 -33 -33 -33 -33 -33 -33 -33 -33 -34 -34 -33 -33 -34
-34 -34 -33 -33 -33 -32 -32 -33 -33 -33 -33 -33 -33 -33 -33 -33 -33 -33 -33 -33 -33 -33 -33 -33 -33 -34 -34 -34 -34 -34 -34 -34 -34 -34 -34 -34 -34 -34 -34 -34 -34 -34 -34 -34
-35 -34 -34 -34 -34 -34 -34 -34 -33 -33 -33 -33 -33 -33 -33 -33 -33 -33 -33 -33 -33 -34 -34 -35 -34 -34 -34 -34 -34 -34 -34 -34 -34 -35 -34 -34 -34 -34 -34 -34 -34 -34 -34 -34
-35 -35 -35 -34 -34 -34 -34 -34 -34 -33 -34 -34 -34 -34 -34 -34 -34 -34 -34 -34 -34 -35 -35 -35 -35 -35 -35 -35 -35 -35 -35 -35 -34 -34 -34 -34 -34 -34 -34 -34 -34 -34 -34 -34
Height
5763 5763 5762 5761 5760 5759 5758 5757 5756 5754 5753 5754 5751 5751 5750 5749 5748 5747 5747 5746 5746 5747 5746 5746 5746 5747 5748 5749 5750 5752 5752 5753 5753 5753 5752 5751 5751 5751 5749 5747 5749 5746 5745 5753
5757 5758 5758 5757 5756 5756 5756 5755 5754 5753 5752 5751 5750 5750 5749 5749 5749 5748 5748 5748 5747 5747 5748 5749 5749 5749 5749 5748 5749 5749 5749 5749 5748 5749 5749 5747 5746 5744 5742 5741 5739 5740 5734 5743
5750 5750 5752 5752 5752 5751 5751 5751 5750 5750 5749 5748 5747 5747 5747 5746 5746 5746 5746 5746 5746 5746 5746 5746 5745 5745 5746 5745 5745 5745 5744 5744 5743 5743 5740 5739 5737 5735 5734 5730 5730 5728 5726 5727
5742 5743 5744 5744 5744 5745 5746 5745 5745 5744 5744 5744 5744 5743 5743 5742 5742 5742 5742 5742 5741 5741 5742 5741 5741 5740 5739 5739 5737 5736 5735 5735 5733 5733 5729 5727 5726 5727 5726 5722 5722 5715 5721 5714
5732 5733 5734 5735 5736 5736 5737 5738 5737 5737 5737 5736 5737 5737 5737 5737 5736 5737 5735 5735 5735 5734 5733 5734 5734 5734 5732 5732 5731 5727 5725 5723 5722 5723 5721 5715 5711 5718 5718 5713 5710 5704 5704 5702
5720 5721 5722 5723 5724 5725 5725 5726 5727 5728 5729 5729 5728 5728 5728 5728 5727 5729 5727 5726 5727 5726 5724 5724 5723 5722 5723 5721 5722 5718 5715 5713 5710 5707 5710 5705 5699 5706 5703 5699 5698 5694 5691 5687
5704 5707 5710 5711 5711 5712 5712 5713 5714 5715 5716 5716 5717 5718 5718 5717 5717 5718 5719 5717 5716 5716 5715 5713 5711 5710 5710 5709 5710 5708 5704 5702 5697 5693 5693 5690 5693 5690 5688 5687 5685 5682 5676 5673
5690 5691 5694 5697 5699 5699 5700 5700 5700 5700 5701 5703 5705 5704 5704 5705 5705 5705 5704 5704 5704 5703 5702 5699 5697 5698 5696 5698 5696 5695 5693 5690 5685 5680 5678 5678 5677 5673 5670 5668 5666 5663 5660 5659
5674 5676 5677 5679 5681 5684 5685 5686 5687 5686 5686 5690 5690 5691 5692 5691 5691 5691 5691 5691 5689 5688 5686 5686 5681 5679 5679 5679 5677 5678 5677 5673 5671 5666 5664 5662 5660 5658 5655 5650 5647 5645 5643 5639
5656 5659 5661 5662 5664 5666 5669 5671 5672 5673 5673 5673 5674 5675 5676 5676 5677 5676 5676 5676 5675 5673 5672 5669 5667 5666 5666 5664 5662 5660 5657 5655 5653 5649 5646 5647 5644 5639 5636 5633 5633 5626 5623 5619
5636 5637 5641 5643 5645 5646 5649 5651 5653 5655 5655 5657 5657 5659 5658 5658 5659 5659 5659 5658 5657 5658 5654 5652 5651 5649 5649 5648 5647 5645 5642 5637 5636 5631 5626 5626 5624 5622 5619 5616 5611 5608 5604 5600
5616 5619 5621 5624 5626 5629 5630 5631 5633 5635 5638 5640 5641 5641 5641 5641 5641 5640 5639 5639 5639 5637 5636 5637 5634 5634 5631 5630 5629 5627 5626 5622 5620 5615 5608 5606 5604 5600 5596 5593 5589 5586 5584 5580
5594 5598 5601 5603 5605 5609 5611 5613 5613 5614 5617 5622 5623 5623 5622 5622 5623 5622 5622 5621 5619 5619 5618 5616 5614 5612 5612 5611 5611 5609 5606 5602 5598 5597 5592 5589 5587 5583 5580 5576 5572 5569 5564 5560
5574 5576 5579 5582 5584 5586 5589 5592 5593 5595 5596 5600 5605 5600 5602 5603 5603 5602 5602 5602 5600 5599 5598 5596 5594 5593 5592 5592 5591 5591 5588 5585 5583 5580 5576 5572 5568 5565 5562 5558 5555 5550 5546 5542
5554 5556 5559 5562 5563 5566 5568 5570 5572 5575 5579 5582 5585 5582 5583 5583 5583 5583 5583 5583 5582 5581 5580 5578 5577 5575 5572 5572 5571 5574 5571 5567 5563 5561 5558 5555 5551 5546 5543 5538 5534 5529 5525 5521
5534 5537 5539 5542 5544 5546 5549 5552 5555 5556 5557 5561 5565 5566 5564 5565 5566 5567 5567 5565 5564 5562 5560 5561 5559 5560 5553 5551 5552 5555 5552 5547 5542 5540 5537 5534 5530 5525 5520 5517 5513 5508 5504 5499
5512 5516 5520 5522 5525 5527 5530 5533 5536 5537 5537 5540 5544 5545 5548 5549 5548 5548 5547 5547 5547 5546 5544 5544 5541 5540 5532 5529 5532 5532 5530 5527 5524 5520 5516 5512 5508 5504 5500 5496 5492 5488 5483 5478
5494 5497 5500 5502 5505 5507 5511 5513 5515 5516 5518 5521 5525 5526 5528 5527 5528 5529 5529 5528 5526 5524 5523 5524 5523 5521 5515 5511 5511 5511 5508 5505 5502 5499 5496 5492 5488 5485 5481 5477 5471 5468 5464 5458
5474 5478 5480 5482 5487 5490 5491 5494 5496 5497 5500 5500 5505 5506 5508 5508 5507 5508 5508 5507 5507 5507 5507 5505 5502 5501 5497 5496 5492 5489 5487 5484 5481 5478 5475 5473 5470 5466 5463 5459 5455 5448 5445 5440
5464 5465 5466 5467 5469 5471 5474 5476 5478 5480 5480 5482 5485 5486 5489 5490 5488 5487 5490 5488 5488 5487 5490 5486 5484 5482 5481 5477 5473 5472 5469 5466 5464 5462 5459 5456 5455 5451 5449 5444 5439 5432 5427 5422
5452 5454 5454 5456 5458 5459 5460 5462 5464 5464 5464 5466 5469 5471 5471 5470 5472 5471 5469 5467 5466 5468 5470 5471 5468 5466 5464 5462 5461 5457 5455 5453 5450 5449 5446 5442 5440 5436 5432 5430 5424 5417 5411 5405
5443 5444 5444 5446 5448 5449 5450 5451 5454 5454 5453 5454 5457 5457 5457 5457 5458 5458 5456 5456 5454 5454 5455 5454 5452 5453 5449 5449 5448 5445 5442 5440 5437 5434 5432 5428 5425 5420 5415 5411 5407 5401 5396 5389
5435 5436 5436 5437 5439 5440 5442 5443 5444 5444 5442 5444 5445 5446 5446 5445 5446 5447 5447 5445 5444 5444 5444 5442 5441 5439 5438 5436 5433 5431 5428 5426 5423 5420 5417 5413 5409 5404 5398 5394 5388 5383 5379 5373
5427 5427 5429 5430 5431 5432 5434 5435 5436 5436 5436 5437 5437 5436 5436 5436 5436 5436 5436 5435 5435 5434 5434 5432 5430 5428 5426 5423 5420 5418 5416 5413 5409 5406 5403 5399 5394 5390 5386 5380 5375 5369 5364 5360
5420 5422 5423 5424 5424 5426 5428 5428 5429 5429 5429 5429 5429 5429 5429 5429 5429 5428 5428 5427 5425 5424 5423 5422 5420 5417 5414 5412 5410 5407 5404 5401 5397 5393 5389 5385 5380 5376 5373 5367 5361 5355 5351 5347
5416 5417 5418 5419 5420 5421 5422 5422 5423 5423 5423 5423 5423 5423 5423 5422 5422 5421 5420 5420 5418 5418 5416 5414 5412 5410 5406 5403 5400 5396 5392 5389 5385 5380 5376 5372 5367 5362 5358 5354 5348 5344 5339 5334
5413 5414 5415 5415 5417 5417 5418 5418 5418 5419 5419 5419 5419 5418 5417 5417 5416 5415 5415 5414 5413 5411 5409 5406 5403 5400 5396 5393 5390 5386 5381 5377 5373 5368 5364 5359 5354 5349 5345 5341 5336 5332 5327 5323
Wind_Speed
16 14 12 10 9 10 9 8 8 8 9 9 11 11 14 15 14 15 14 13 11 10 8 7 6 4 1 2 5 7 10 12 14 17 19 22 24 25 29 33 31 32 31 18
22 21 20 18 16 15 15 14 12 11 10 9 8 9 9 10 10 8 8 9 8 8 7 5 2 2 4 6 9 11 13 14 17 18 21 23 25 27 29 32 33 29 36 23
29 27 27 25 25 23 21 20 19 19 18 16 15 14 12 12 11 10 9 9 8 8 8 9 10 10 11 12 14 17 18 19 22 22 26 27 28 29 31 34 33 34 35 31
36 34 33 32 31 30 29 28 26 25 24 23 23 21 22 21 18 17 16 15 15 15 14 14 15 17 19 20 22 24 27 24 27 26 30 33 34 33 34 38 37 44 37 43
43 41 39 38 37 36 36 35 33 31 31 29 28 28 27 27 26 25 25 25 24 24 26 24 25 25 26 26 27 32 34 35 35 33 35 40 42 35 34 38 40 44 44 45
50 48 46 45 43 42 41 41 40 38 37 37 36 34 34 34 33 32 32 33 32 33 35 36 36 35 33 34 32 36 39 40 42 42 37 42 47 39 40 43 43 48 50 52
55 55 54 52 50 49 48 47 46 46 45 43 43 43 42 41 41 41 40 41 41 41 41 42 43 43 43 42 40 40 42 42 45 48 45 47 45 45 45 45 47 49 53 55
61 60 59 59 58 57 55 54 53 52 52 51 50 49 49 49 49 47 47 47 48 49 49 51 51 50 50 48 47 46 45 47 48 51 51 51 49 51 51 52 55 57 59 59
68 66 66 65 64 63 62 61 60 59 59 57 56 56 56 57 56 55 55 54 55 56 57 56 57 57 56 54 54 52 50 48 48 50 51 55 57 57 58 59 62 63 62 63
75 74 73 70 69 68 67 67 66 66 67 65 64 63 64 63 62 62 62 62 62 62 61 61 60 59 58 57 56 55 52 51 52 53 57 59 60 62 63 63 64 65 65 66
69 70 70 68 71 69 69 70 71 73 74 73 72 70 69 68 66 66 65 64 63 61 61 60 59 59 58 58 57 56 56 58 59 60 63 65 65 65 65 65 66 67 67 67
69 67 65 65 64 65 64 65 65 66 66 66 65 67 66 64 63 63 61 60 59 60 61 60 61 61 62 63 62 61 60 60 61 64 66 67 67 67 66 67 67 68 68 68
72 72 73 71 69 67 67 67 66 67 66 65 64 64 64 64 63 64 64 63 63 65 64 65 65 66 65 64 63 61 61 61 63 62 61 61 61 62 63 65 66 67 68 70
67 68 69 70 71 70 70 69 68 68 68 67 64 65 65 65 66 66 65 64 62 62 61 61 63 63 62 61 59 60 59 58 57 59 60 59 59 62 64 67 69 71 72 74
62 62 62 62 62 62 61 61 61 61 63 63 60 60 59 60 59 59 60 59 59 58 57 58 58 58 60 61 61 60 60 62 64 65 65 66 67 69 70 72 73 75 76 77
64 63 62 62 62 62 60 59 60 59 58 59 59 58 57 57 56 55 56 56 57 58 58 59 59 58 62 65 65 64 65 66 68 68 69 70 71 72 73 73 72 73 74 75
67 66 65 63 62 62 61 61 61 60 60 60 60 59 58 57 57 57 58 60 60 62 63 63 64 64 66 67 67 66 68 68 68 69 69 69 70 71 72 72 72 72 70 68
70 66 62 61 62 63 62 63 63 63 62 61 61 59 59 59 60 59 59 59 60 61 62 62 62 62 62 63 63 63 63 63 64 65 65 66 67 68 68 67 65 65 65 65
48 54 64 66 66 59 56 57 57 58 60 60 59 58 58 60 61 60 60 60 59 60 60 59 58 57 58 57 56 57 57 58 59 60 60 59 60 60 60 61 61 63 63 65
33 32 34 39 43 47 48 50 51 54 54 55 56 58 57 57 57 59 58 58 56 56 54 52 51 50 48 47 48 49 48 48 50 52 54 56 57 57 57 58 59 60 61 62
30 32 31 30 30 31 33 34 36 39 41 43 45 45 44 44 46 46 47 46 48 49 46 46 43 43 43 43 43 44 46 47 48 49 50 53 54 53 51 50 53 57 61 64
26 24 25 27 27 26 25 26 28 29 31 32 32 32 33 34 34 34 34 34 34 35 36 36 36 35 36 37 39 41 44 46 47 49 47 47 46 47 51 53 57 59 60 60
25 23 23 21 21 23 22 21 22 23 22 23 24 25 25 25 26 28 29 29 30 31 31 32 33 34 35 38 40 40 40 40 39 40 42 45 48 49 51 53 54 55 54 53
22 21 20 19 19 18 18 19 19 19 19 20 21 22 22 23 24 25 26 28 28 29 30 31 34 35 34 34 34 35 36 38 41 43 45 46 48 49 48 50 51 52 53 52
16 17 17 15 15 15 14 14 14 13 16 18 19 20 21 21 21 22 23 24 26 27 29 28 27 28 31 33 36 38 40 41 42 43 44 45 46 47 47 49 51 50 46 43
12 12 12 9 8 8 9 11 11 11 11 12 14 15 16 17 18 19 21 22 23 21 22 25 28 29 32 35 36 38 39 40 41 42 44 45 47 47 45 42 43 43 42 39
7 5 4 6 6 7 7 8 9 10 11 11 12 12 14 14 15 16 18 19 19 20 21 25 28 30 31 32 33 35 37 38 40 42 43 43 43 43 42 39 38 35 33 33
Wind_Direction
267 273 278 287 297 310 323 337 353 2 12 18 28 25 27 33 37 39 43 50 61 67 61 54 48 48 51 253 250 257 258 257 266 268 271 275 277 278 275 276 279 277 278 280
257 262 268 271 276 281 289 297 304 310 317 322 330 344 347 359 5 14 17 17 20 22 18 9 346 276 254 252 259 261 262 260 262 260 263 262 262 266 269 270 273 281 281 295
254 257 262 265 269 271 273 279 285 289 292 295 297 303 301 310 317 319 321 324 322 322 323 320 313 307 299 291 284 279 269 267 268 270 269 266 265 267 271 275 279 283 278 285
252 253 256 259 263 267 268 271 272 276 280 283 287 290 294 296 296 294 295 295 294 292 289 288 290 292 292 291 289 287 285 281 279 278 281 280 279 277 281 284 284 281 287 281
251 253 254 256 259 261 265 268 269 271 273 272 277 280 281 285 287 289 291 291 290 291 289 286 286 284 282 282 284 285 284 286 281 275 274 277 277 276 278 275 275 279 280 281
253 253 254 255 255 259 263 266 268 270 271 274 274 273 276 278 279 281 283 285 286 288 288 290 291 288 284 281 281 282 281 281 280 277 270 271 276 281 275 276 276 276 280 278
252 255 257 257 257 257 259 261 263 266 269 270 273 276 276 275 277 280 280 282 284 284 286 286 286 286 286 284 283 281 281 279 278 280 277 275 280 280 278 275 275 277 277 279
254 254 256 258 260 260 260 261 262 264 264 266 270 271 273 276 277 277 278 282 283 284 285 285 284 284 283 283 283 283 282 280 278 276 278 281 283 282 283 283 281 279 277 277
253 253 254 255 256 258 260 261 262 263 264 267 267 269 272 274 276 278 280 280 281 282 283 284 285 287 288 287 287 287 283 281 278 279 279 279 283 283 281 279 278 281 284 284
257 255 254 255 255 256 258 260 261 262 263 263 265 265 268 269 271 274 276 277 278 278 281 281 281 283 284 285 286 287 285 281 278 276 277 278 279 278 279 279 283 282 281 280
255 255 256 256 257 260 260 261 260 261 263 266 267 268 269 272 273 275 276 277 278 279 278 277 279 280 280 281 281 280 279 278 279 278 277 277 277 277 276 278 278 278 279 280
256 257 258 258 259 260 262 262 263 265 267 269 270 273 273 273 273 273 274 275 277 277 277 277 278 278 278 279 277 276 276 275 275 275 277 278 279 280 281 282 282 282 282 283
257 259 260 259 259 260 261 261 263 264 265 267 268 269 271 271 271 272 273 274 274 274 275 276 276 276 276 276 276 276 276 275 274 275 279 279 279 278 278 278 279 281 282 282
259 259 259 261 261 261 262 262 262 263 264 265 267 268 267 268 269 270 272 273 273 273 273 273 273 273 274 273 273 273 273 274 275 274 275 276 276 277 277 277 278 278 279 279
260 259 259 260 260 261 262 263 264 265 265 265 265 266 266 267 268 268 269 270 270 270 269 270 271 271 273 274 272 272 274 275 276 276 275 276 277 278 278 279 280 280 281 281
261 261 262 263 263 263 264 264 265 265 265 265 264 265 266 267 266 266 266 266 267 267 269 270 271 273 274 274 273 273 275 275 275 277 278 278 279 279 280 281 281 283 284 286
260 261 261 262 262 263 264 264 264 265 267 268 267 267 267 267 266 267 268 268 267 268 270 272 272 273 274 275 275 275 275 275 276 277 278 278 278 279 280 281 283 285 287 288
247 250 255 258 260 261 262 264 265 266 266 267 268 269 269 269 269 268 268 268 269 270 270 270 270 270 271 273 275 275 275 274 274 275 275 276 277 279 282 284 285 286 287 287
267 263 261 258 255 254 254 257 259 261 264 265 267 267 267 268 268 269 270 270 270 270 270 271 272 273 273 275 275 274 274 273 274 275 276 278 280 282 284 285 286 286 287 287
264 262 264 267 268 267 268 265 263 260 260 260 262 264 264 267 269 270 270 270 269 270 270 270 271 271 271 269 268 270 269 269 271 272 274 275 277 279 281 283 285 287 289 290
264 261 261 262 262 261 261 262 265 266 266 266 267 267 268 268 268 269 269 270 271 271 270 269 269 267 267 266 267 269 270 272 274 274 276 279 281 283 285 285 286 288 289 291
267 268 266 263 262 263 262 264 265 264 266 269 268 266 265 266 266 265 265 265 267 270 272 272 271 271 271 271 272 273 274 276 279 282 284 284 286 284 286 287 288 290 292 295
268 268 263 260 256 257 259 263 263 262 264 264 267 269 268 267 264 265 267 269 268 269 269 271 274 275 275 276 279 284 286 286 286 284 284 285 288 292 294 294 295 296 297 298
266 263 260 259 260 255 257 259 262 264 265 264 262 261 260 262 264 267 270 273 277 280 280 279 279 283 287 288 287 285 285 286 288 291 294 294 292 292 292 292 295 297 299 301
254 257 261 260 255 253 255 257 256 251 251 255 260 265 270 273 274 275 278 279 277 279 282 291 296 291 290 291 293 293 293 293 293 293 292 292 292 293 296 297 299 299 300 300
243 252 259 264 255 243 239 244 253 261 264 265 268 273 277 278 276 276 277 279 285 294 289 288 290 291 290 290 291 292 294 295 295 295 296 297 298 299 300 300 298 300 302 302
253 264 243 230 230 241 253 260 265 269 270 274 281 283 282 284 283 286 289 294 294 290 290 290 292 292 291 292 294 295 296 298 298 298 299 300 299 300 302 304 305 304 302 304